Location: *
(50.8512°N, 5.6907°E)
Time: 17:35:43
(UTC+00:00)

SL-24 R/B - RUBIN 2 - Pass Details

Date: 09 April 2020
Orbit: 569 x 1026 km, 64.6° (Epoch: 01 June)

Event Time Altitude Azimuth Distance (km) Brightness Sun altitude
Rises 19:22:22 0° 211° (SSW) 3,278 7.4 -9.5°
Reaches altitude 10° 19:24:39 10° 210° (SSW) 2,419 6.6 -9.9°
Maximum altitude 19:30:17 73° 127° (SE) 944 4.3 -10.7°
Drops below altitude 10° 19:36:40 10° 44° (NE) 2,722 6.7 -11.6°
Sets 19:39:22 0° 43° (NE) 3,717 7.4 -11.9°
